Temp
2 1 1 0 -1 -2 -3 -3 -4 -4 -4 -3 -3 -3 -3 -2 -1 -1 -0 -0 0 1
1 0 -1 -2 -3 -4 -4 -3 -4 -4 -4 -4 -4 -4 -3 -4 -3 -2 -2 -2 -2 -1
-2 -2 -2 -2 -3 -3 -3 -3 -3 -3 -3 -4 -4 -4 -5 -5 -5 -4 -4 -4 -3 -3
-3 -4 -3 -2 -3 -4 -4 -4 -4 -2 -2 -3 -4 -4 -5 -5 -5 -5 -5 -5 -4 -4
-4 -4 -4 -4 -4 -5 -5 -5 -5 -3 -2 -3 -5 -5 -6 -5 -5 -5 -6 -6 -5 -5
-3 -3 -4 -4 -5 -4 -5 -5 -5 -4 -2 -3 -4 -5 -6 -7 -6 -5 -6 -7 -5 -6
-4 -4 -4 -4 -4 -4 -5 -5 -4 -4 -4 -4 -5 -6 -6 -7 -6 -5 -6 -6 -7 -5
-4 -4 -4 -4 -4 -4 -5 -6 -5 -5 -5 -4 -5 -7 -8 -7 -6 -6 -6 -7 -5 -5
-4 -4 -4 -4 -4 -4 -5 -5 -6 -5 -5 -4 -6 -8 -8 -7 -6 -6 -6 -6 -6 -6
-4 -4 -4 -4 -5 -6 -6 -6 -6 -6 -6 -5 -6 -8 -7 -8 -7 -7 -8 -8 -8 -7
-4 -4 -5 -5 -6 -7 -7 -7 -6 -6 -6 -6 -7 -8 -9 -9 -9 -9 -9 -9 -10 -9
-5 -5 -5 -6 -7 -9 -9 -9 -8 -8 -8 -8 -9 -9 -9 -9 -9 -10 -10 -10 -11 -11
-5 -5 -6 -7 -8 -9 -10 -10 -10 -9 -9 -9 -9 -12 -11 -10 -9 -10 -10 -11 -11 -14
-6 -7 -7 -8 -9 -10 -10 -11 -10 -10 -10 -10 -9 -11 -13 -11 -10 -11 -12 -13 -13 -14
Height
1497 1495 1494 1495 1494 1493 1490 1486 1484 1482 1480 1478 1476 1472 1469 1468 1466 1463 1460 1459 1458 1457
1496 1494 1494 1496 1495 1494 1492 1487 1484 1482 1480 1478 1475 1473 1469 1468 1465 1461 1457 1457 1454 1453
1496 1495 1494 1496 1497 1495 1493 1489 1485 1483 1481 1479 1476 1474 1472 1470 1466 1461 1457 1457 1453 1450
1496 1496 1497 1496 1496 1495 1494 1490 1486 1483 1482 1480 1477 1475 1473 1470 1467 1461 1458 1455 1451 1449
1496 1497 1498 1497 1496 1496 1494 1490 1486 1483 1482 1480 1478 1475 1475 1470 1466 1462 1458 1456 1453 1450
1497 1496 1497 1497 1496 1495 1493 1491 1487 1483 1482 1480 1478 1476 1474 1470 1466 1462 1458 1457 1453 1451
1497 1495 1496 1496 1494 1493 1493 1490 1486 1483 1482 1480 1478 1476 1474 1471 1468 1463 1462 1460 1457 1450
1497 1495 1495 1495 1493 1493 1492 1490 1486 1485 1483 1481 1479 1477 1474 1472 1469 1466 1465 1462 1456 1452
1496 1495 1495 1494 1493 1493 1492 1489 1487 1485 1484 1481 1479 1478 1475 1473 1471 1468 1466 1463 1460 1456
1495 1494 1495 1494 1493 1493 1491 1489 1488 1486 1485 1482 1480 1479 1477 1474 1472 1471 1470 1466 1462 1457
1493 1494 1494 1494 1493 1492 1492 1490 1489 1488 1486 1484 1482 1481 1479 1478 1475 1474 1471 1467 1464 1459
1493 1493 1493 1494 1493 1493 1492 1491 1490 1489 1488 1486 1484 1483 1481 1480 1477 1475 1471 1469 1465 1462
1492 1492 1493 1494 1494 1493 1493 1492 1491 1490 1489 1488 1486 1485 1482 1481 1478 1475 1473 1470 1467 1465
1492 1492 1493 1494 1494 1495 1494 1493 1492 1491 1490 1489 1487 1485 1484 1481 1478 1476 1474 1472 1470 1470
Wind_Speed
11 11 12 13 12 14 14 15 15 15 15 14 14 13 11 12 11 10 9 10 11 11
10 11 12 12 11 13 14 14 15 15 15 12 11 14 12 12 10 8 7 9 8 7
9 10 10 10 11 12 12 13 14 14 16 12 12 14 17 17 15 14 15 14 12 9
9 10 11 10 11 11 13 12 11 12 14 11 11 13 15 13 14 15 15 19 17 14
4 4 6 6 6 5 6 7 9 13 13 11 7 10 16 13 13 14 15 17 17 18
1 1 2 2 3 3 3 6 8 10 11 11 7 8 12 15 13 15 12 14 19 14
2 2 1 1 2 3 3 3 8 11 11 10 9 10 12 13 14 16 12 12 16 18
4 3 2 3 4 4 4 4 8 10 12 11 11 14 12 12 14 16 17 16 18 19
5 3 3 2 3 4 4 4 6 10 13 13 12 12 14 12 14 15 18 19 19 20
5 3 2 1 2 5 8 9 10 11 13 15 12 10 11 11 12 14 16 20 21 22
5 4 3 3 5 7 9 10 11 13 14 14 16 10 9 10 12 14 16 19 24 23
5 4 5 6 7 9 9 11 12 13 13 14 17 15 13 10 13 17 19 20 22 23
7 6 8 9 10 11 10 9 9 11 13 12 14 18 15 13 14 16 19 19 21 24
9 9 10 11 12 12 10 6 6 9 11 11 12 16 17 15 15 18 21 23 22 23
Wind_Direction
22 20 14 6 1 356 357 2 3 3 360 357 352 355 352 341 336 336 327 319 310 303
28 27 25 23 22 24 21 29 23 16 14 19 22 29 20 16 16 19 19 5 354 343
39 35 32 35 34 41 34 31 25 15 21 37 41 48 41 36 41 47 43 28 27 30
51 39 33 37 38 36 36 30 21 4 18 28 43 46 45 34 31 42 40 30 34 39
72 47 32 31 31 25 32 8 2 351 11 23 42 38 41 29 25 34 35 25 35 40
117 103 64 5 8 4 26 341 352 354 13 29 45 41 39 25 23 31 30 24 30 35
181 157 155 282 322 338 1 340 353 16 18 36 56 50 41 30 31 34 33 28 33 36
199 205 221 265 321 349 346 331 354 26 32 42 58 55 42 26 36 42 43 40 41 43
214 199 232 309 345 2 39 39 27 44 43 47 57 55 47 38 35 40 39 41 43 46
198 188 197 48 62 71 71 68 62 54 45 49 55 48 29 42 32 36 38 39 39 41
185 155 136 123 98 88 78 72 65 57 51 50 58 59 47 32 38 39 39 37 38 36
181 155 137 130 108 92 79 65 55 55 51 49 54 59 61 47 54 48 46 43 44 33
160 143 128 117 108 97 83 68 52 45 44 46 51 48 49 51 51 50 47 45 42 38
143 128 117 115 107 102 94 75 49 42 43 44 49 50 49 51 51 48 45 42 43 40